This is the latest recevied weather packets stored in our database for station/object OK1VOF-13. If no packets are shown the sender has not sent any weather packets the latest 10 day(s).
| Time | Temp. | Humidity | Pressure | Rain* | Wind** | Luminosity | Snow |
|---|---|---|---|---|---|---|---|
| 1777746464 | 21.11° C | 27% | 1020.4 hPa | 0 mm | - | - | - |
| 1777746165 | 21.11° C | 27% | 1020.4 hPa | 0 mm | - | - | - |
| 1777745866 | 21.67° C | 24% | 1020.2 hPa | 0 mm | - | - | - |
| 1777745568 | 22.22° C | 23% | 1020.2 hPa | 0 mm | - | - | - |
| 1777745270 | 22.78° C | 24% | 1020.2 hPa | 0 mm | - | - | - |
| 1777744970 | 23.89° C | 21% | 1020.1 hPa | 0 mm | - | - | - |
| 1777744671 | 24.44° C | 20% | 1020.1 hPa | 0 mm | - | - | - |
| 1777744372 | 25.56° C | 17% | 1020.1 hPa | 0 mm | - | - | - |
| 1777744074 | 27.78° C | 16% | 1020 hPa | 0 mm | - | - | - |
| 1777743775 | 28.89° C | 14% | 1020.1 hPa | 0 mm | - | - | - |
| 1777743476 | 31.11° C | 13% | 1020.1 hPa | 0 mm | - | - | - |
| 1777743177 | 32.78° C | 13% | 1020.1 hPa | 0 mm | - | - | - |
| 1777742879 | 32.22° C | 15% | 1020.1 hPa | 0 mm | - | - | - |
| 1777742580 | 32.78° C | 11% | 1020.1 hPa | 0 mm | - | - | - |
| 1777742281 | 36.67° C | 10% | 1020.2 hPa | 0 mm | - | - | - |
| 1777741684 | 39.44° C | 8% | 1020.3 hPa | 0 mm | - | - | - |
| 1777741385 | 37.78° C | 8% | 1020.4 hPa | 0 mm | - | - | - |
| 1777741086 | 41.67° C | 7% | 1020.4 hPa | 0 mm | - | - | - |
| 1777740787 | 40.56° C | 7% | 1020.4 hPa | 0 mm | - | - | - |
| 1777740488 | 39.44° C | 8% | 1020.5 hPa | 0 mm | - | - | - |
| 1777740190 | 41.67° C | 8% | 1020.6 hPa | 0 mm | - | - | - |
| 1777739891 | 41.11° C | 9% | 1020.6 hPa | 0 mm | - | - | - |
| 1777739592 | 40° C | 8% | 1020.7 hPa | 0 mm | - | - | - |
| 1777739293 | 40.56° C | 8% | 1020.8 hPa | 0 mm | - | - | - |
| 1777738994 | 40° C | 8% | 1020.9 hPa | 0 mm | - | - | - |
* Rain latest hour (hover to see other rain measurements)
** Current wind speed in m/s (hover to see current wind gust speed)